CZ-2D R/B

Last updated on Sun Jun 21 2026 00:02:15 GMT+0000 (Coordinated Universal Time)

1 28738U 05024B 26171.02428521 .00051696 00000+0 43299-3 0 9996 2 28738 97.3481 190.5942 0002904 47.7196 312.4312 15.69825717155784
UTC large
Height (km)
Speed (km/s)
/
Latitude / Longitude
Inclination (degrees)
Orbital Period (minutes)
Azimuth
Elevation
Range (km)
Doppler Factor

Next 0 passes for location: London (51.5072 / 0.1276)

No passes found over London.
CZ-2D R/B